Location: ??
(34.9170°N, 135.5016°E)
Time: 16:52:21
(UTC+00:00)

Vanguard 1 Rocket - Visible Passes

Search period start: 26 February 2021 00:00
Search period end: 08 March 2021 00:00
Orbit: 654 x 4222 km, 34.3° (Epoch: 25 February)

Date Brightness Start Highest point End Pass type
(mag) Time Alt. Az. Time Alt. Az. Time Alt. Az.
26 Feb 10.9 15:55:08 45° ESE 15:55:08 45° ESE 16:10:26 10° ENE visible
26 Feb 10.3 18:12:22 61° WSW 18:19:43 83° SSE 18:40:17 10° E visible
26 Feb 10.2 20:29:36 15° W 20:52:48 86° S 21:07:30 10° ESE visible
27 Feb 11.4 14:47:28 24° E 14:47:28 24° E 14:55:20 10° ENE visible
27 Feb 10.4 17:04:43 74° SSE 17:04:43 74° SSE 17:27:14 10° ENE visible
27 Feb 10.3 19:21:56 34° W 19:37:58 89° S 19:55:45 10° E visible
28 Feb 10.8 15:57:01 50° E 15:57:01 50° E 16:13:22 10° ENE visible
28 Feb 10.4 18:14:15 59° WSW 18:22:23 86° S 18:43:19 10° E visible
28 Feb 10.2 20:31:29 13° W 20:55:35 82° SSW 21:10:33 10° ESE visible
01 Mar 11.3 14:49:17 27° E 14:49:17 27° E 14:58:26 10° ENE visible
01 Mar 10.3 17:06:30 80° SSE 17:06:32 80° SSE 17:30:10 10° E visible
01 Mar 10.3 19:23:44 31° W 19:40:46 88° S 19:58:49 10° E visible
02 Mar 11.5 13:41:32 11° E 13:41:32 11° E 13:41:59 10° ENE visible
02 Mar 10.7 15:58:46 55° E 15:58:46 55° E 16:16:14 10° ENE visible
02 Mar 10.4 18:15:59 56° W 18:25:06 88° S 18:46:21 10° E visible
02 Mar 10.3 20:33:13 11° W 20:58:14 77° SSW 21:13:31 10° ESE visible
03 Mar 11.2 14:50:59 31° E 14:50:59 31° E 15:01:21 10° ENE visible
03 Mar 10.3 17:08:12 83° SSW 17:09:05 84° SSE 17:33:06 10° E visible
03 Mar 10.4 19:25:26 29° W 19:43:31 85° S 20:01:52 10° ESE visible
04 Mar 11.3 13:43:12 13° ENE 13:43:12 13° ENE 13:45:17 10° ENE visible
04 Mar 10.6 16:00:25 59° E 16:00:25 59° E 16:19:03 10° ENE visible
04 Mar 10.4 18:17:39 52° W 18:27:50 89° S 18:49:22 10° E visible
04 Mar 10.3 20:35:08 10° WNW 21:00:45 71° SSW 21:16:21 10° SE visible
05 Mar 11.1 14:52:37 34° E 14:52:37 34° E 15:04:09 10° ENE visible
05 Mar 10.3 17:09:51 82° WSW 17:11:43 87° S 17:36:02 10° E visible
05 Mar 10.4 19:27:04 26° W 19:46:10 82° SSW 20:04:49 10° ESE visible
06 Mar 11.1 13:44:50 16° ENE 13:44:50 16° ENE 13:48:15 10° ENE visible
06 Mar 10.5 16:02:04 64° E 16:02:04 64° E 16:21:52 10° E visible
06 Mar 10.4 18:19:17 49° W 18:30:33 87° S 18:52:21 10° E visible
06 Mar 10.4 20:37:47 10° WNW 21:03:06 64° SSW 21:19:02 10° SE visible
07 Mar 10.7 11:59:51 10° S 12:37:03 - ENE 12:01:39 15° S visible
07 Mar 11.0 14:54:17 38° E 14:54:17 38° E 15:06:52 10° ENE visible
07 Mar 10.3 17:11:30 78° WSW 17:14:24 88° S 17:38:58 10° E visible
07 Mar 10.4 19:28:44 24° W 19:48:42 77° SSW 20:07:39 10° ESE visible
